This is the latest recevied weather packets stored in our database for station/object OK1FET-5. If no packets are shown the sender has not sent any weather packets the latest 10 day(s).
| Time | Temp. | Humidity | Pressure | Rain* | Wind** | Luminosity | Snow |
|---|---|---|---|---|---|---|---|
| 1778113944 | 12.22° C | 83% | 1008.1 hPa | - | - | - | - |
| 1778113650 | 12.22° C | 83% | 1008 hPa | - | - | - | - |
| 1778113650 | 12.22° C | 83% | 1008 hPa | - | - | - | - |
| 1778113062 | 12.22° C | 83% | 1007.9 hPa | - | - | - | - |
| 1778112767 | 12.22° C | 83% | 1007.9 hPa | - | - | - | - |
| 1778112473 | 12.22° C | 83% | 1007.8 hPa | - | - | - | - |
| 1778111885 | 12.22° C | 82% | 1007.6 hPa | - | - | - | - |
| 1778111591 | 12.22° C | 82% | 1007.7 hPa | - | - | - | - |
| 1778111296 | 12.22° C | 82% | 1007.8 hPa | - | - | - | - |
| 1778111002 | 12.22° C | 83% | 1007.8 hPa | - | - | - | - |
| 1778110708 | 12.22° C | 83% | 1007.7 hPa | - | - | - | - |
| 1778110414 | 12.78° C | 84% | 1007.7 hPa | - | - | - | - |
| 1778110119 | 12.78° C | 84% | 1007.7 hPa | - | - | - | - |
| 1778109825 | 12.78° C | 85% | 1007.7 hPa | - | - | - | - |
| 1778109531 | 12.78° C | 87% | 1007.7 hPa | - | - | - | - |
| 1778109237 | 12.78° C | 89% | 1007.8 hPa | - | - | - | - |
| 1778108942 | 12.78° C | 90% | 1007.7 hPa | - | - | - | - |
| 1778108649 | 12.78° C | 87% | 1007.7 hPa | - | - | - | - |
| 1778108354 | 12.78° C | 85% | 1007.7 hPa | - | - | - | - |
| 1778108060 | 12.78° C | 81% | 1007.7 hPa | - | - | - | - |
| 1778107766 | 12.78° C | 78% | 1007.7 hPa | - | - | - | - |
| 1778107471 | 12.22° C | 78% | 1007.7 hPa | - | - | - | - |
| 1778107177 | 12.22° C | 79% | 1007.7 hPa | - | - | - | - |
| 1778106883 | 12.22° C | 79% | 1007.7 hPa | - | - | - | - |
| 1778106589 | 12.22° C | 78% | 1007.7 hPa | - | - | - | - |
* Rain since midnight (hover to see other rain measurements)
** Current wind speed in m/s (hover to see current wind gust speed)